This is the latest recevied weather packets stored in our database for station/object SR3WXA. If no packets are shown the sender has not sent any weather packets the latest 10 day(s).
| Time | Temp. | Humidity | Pressure | Rain* | Wind** | Luminosity | Snow |
|---|---|---|---|---|---|---|---|
| 1788418616 | 16.67° C | 81% | 1018.2 hPa | 0 mm | - | 98 W/m² | - |
| 1788418557 | 16.67° C | 81% | 1018.2 hPa | 0 mm | - | 98 W/m² | - |
| 1788418311 | 17.22° C | 80% | 1018.2 hPa | 0 mm | - | 146 W/m² | - |
| 1788418257 | 17.22° C | 80% | 1018.2 hPa | 0 mm | - | 146 W/m² | - |
| 1788418022 | 17.22° C | 80% | 1018.1 hPa | 0 mm | - | 271 W/m² | - |
| 1788417957 | 17.22° C | 80% | 1018.1 hPa | 0 mm | - | 271 W/m² | - |
| 1788417711 | 17.22° C | 80% | 1018.1 hPa | 0 mm | - | 279 W/m² | - |
| 1788417657 | 17.22° C | 80% | 1018.1 hPa | 0 mm | - | 279 W/m² | - |
| 1788417443 | 17.22° C | 80% | 1018.2 hPa | 0 mm | - | 278 W/m² | - |
| 1788417358 | 17.22° C | 80% | 1018.2 hPa | 0 mm | - | 278 W/m² | - |
| 1788417057 | 17.22° C | 81% | 1018.2 hPa | 0 mm | - | 211 W/m² | - |
| 1788416814 | 16.67° C | 82% | 1018.2 hPa | 0 mm | - | 200 W/m² | - |
| 1788416757 | 16.67° C | 82% | 1018.2 hPa | 0 mm | - | 200 W/m² | - |
| 1788416457 | 16.67° C | 83% | 1018.2 hPa | 0 mm | - | 234 W/m² | - |
| 1788416157 | 16.11° C | 83% | 1018.3 hPa | 0 mm | - | 227 W/m² | - |
| 1788415912 | 16.11° C | 84% | 1018.2 hPa | 0 mm | - | 200 W/m² | - |
| 1788415858 | 16.11° C | 84% | 1018.2 hPa | 0 mm | - | 200 W/m² | - |
| 1788415560 | 16.11° C | 85% | 1018.2 hPa | 0 mm | - | 211 W/m² | - |
| 1788415290 | 15.56° C | 85% | 1018.3 hPa | 0 mm | - | 188 W/m² | - |
| 1788415257 | 15.56° C | 85% | 1018.3 hPa | 0 mm | - | 188 W/m² | - |
| 1788415022 | 15.56° C | 86% | 1018.3 hPa | 0 mm | - | 179 W/m² | - |
| 1788414957 | 15.56° C | 86% | 1018.3 hPa | 0 mm | - | 179 W/m² | - |
| 1788414659 | 15.56° C | 87% | 1018.2 hPa | 0 mm | - | 172 W/m² | - |
| 1788414484 | 15° C | 87% | 1018.2 hPa | 0 mm | - | 142 W/m² | - |
| 1788414357 | 15° C | 87% | 1018.2 hPa | 0 mm | - | 142 W/m² | - |
* Rain latest hour (hover to see other rain measurements)
** Current wind speed in m/s (hover to see current wind gust speed)